Vorticity
nan nan nan nan nan nan nan nan nan nan nan nan nan nan nan nan nan nan nan nan nan nan nan nan nan nan nan nan nan nan nan nan nan nan nan nan nan nan nan nan nan nan nan nan nan nan nan nan nan
nan 7 4 8 11 7 7 9 2 3 8 7 5 6 1 8 15 9 9 6 6 6 6 7 6 6 6 6 6 6 7 6 6 6 5 7 6 6 5 5 4 5 6 6 6 6 4 3 nan
nan 6 6 8 14 9 8 2 4 9 5 -0 1 5 11 12 7 4 10 7 6 5 5 6 7 6 6 6 6 6 6 7 7 6 6 5 5 6 5 6 6 6 5 5 4 4 3 4 nan
nan 8 8 11 9 10 12 9 6 4 1 5 4 6 11 8 8 12 6 5 5 4 7 6 6 6 5 5 6 7 6 7 7 6 6 6 6 5 6 5 5 6 5 5 5 4 4 4 nan
nan 6 10 9 7 9 10 9 6 6 7 7 4 9 6 6 11 9 5 5 5 5 5 6 5 6 6 5 6 6 7 6 6 6 6 5 6 5 5 5 6 6 6 6 5 4 4 4 nan
nan 9 11 6 6 5 6 4 3 7 8 8 14 5 3 13 9 4 5 5 4 6 6 5 5 5 6 6 7 5 6 5 5 6 5 5 5 5 5 5 6 6 6 6 5 4 3 3 nan
nan 9 12 9 2 6 5 4 7 8 8 11 9 -0 7 9 4 6 5 6 6 5 6 6 5 5 6 10 7 6 5 5 5 5 5 5 4 4 5 4 6 6 6 5 4 4 4 4 nan
nan 11 9 6 3 6 4 5 8 6 10 9 6 8 12 8 4 5 5 5 6 6 6 6 6 5 10 7 5 7 6 5 5 4 4 3 5 7 6 9 6 5 5 5 5 4 4 4 nan
nan 12 8 7 8 8 6 3 6 11 11 3 7 17 14 6 5 4 4 5 5 6 6 7 7 5 7 7 7 7 6 7 8 6 6 5 8 10 2 5 8 5 5 5 4 4 4 6 nan
nan 10 5 7 14 12 6 4 9 10 5 7 7 14 10 5 4 4 4 5 6 7 6 6 8 8 6 7 5 7 8 6 5 7 6 8 4 4 7 8 6 7 8 6 7 6 8 9 nan
nan 5 7 9 13 12 7 7 9 8 7 10 12 7 3 3 5 4 5 6 7 6 8 8 8 7 7 6 5 6 6 7 5 5 5 8 7 9 6 7 10 10 9 9 10 7 6 7 nan
nan 5 12 12 10 9 7 9 7 1 12 21 16 7 5 5 5 5 6 7 8 7 8 8 6 5 6 5 8 6 7 6 6 7 10 8 10 7 7 8 8 8 6 10 10 6 7 6 nan
nan 12 13 10 9 7 8 5 3 12 15 16 11 6 4 5 5 6 6 6 7 8 7 7 4 5 6 4 5 6 9 7 8 6 6 6 8 9 10 7 5 7 8 8 8 8 6 10 nan
nan 12 9 7 8 6 7 3 4 12 12 9 6 5 5 7 6 5 5 6 7 8 6 6 4 5 3 6 5 7 7 6 4 6 5 6 6 9 9 8 6 7 7 7 7 6 8 6 nan
nan 2 3 6 3 6 5 7 11 13 7 6 5 6 6 7 6 5 6 6 8 8 7 4 4 5 4 6 6 6 7 5 5 7 5 5 5 6 7 7 6 8 7 7 6 6 6 5 nan
nan 4 1 6 4 6 3 10 14 10 5 6 6 6 7 8 6 6 6 7 8 7 7 3 5 5 5 5 4 6 7 6 6 5 8 8 7 5 6 4 5 7 7 8 6 6 7 7 nan
nan 5 9 9 6 4 4 1 17 9 5 7 7 6 7 7 7 7 6 7 6 8 7 5 6 5 5 3 5 8 8 7 6 7 8 8 7 6 7 7 7 5 8 6 6 8 7 5 nan
nan 4 6 9 12 3 7 5 9 10 6 7 7 7 6 7 8 6 6 7 6 7 6 6 5 5 4 5 8 9 9 8 7 7 8 7 7 6 7 6 7 8 9 8 6 5 7 9 nan
nan 9 7 9 7 7 8 8 9 12 6 6 8 8 6 7 8 7 7 6 7 7 7 7 4 5 6 7 7 8 10 9 5 7 9 9 8 8 7 8 7 8 6 5 8 8 7 6 nan
nan 8 11 3 9 9 8 7 13 13 10 7 7 8 8 7 7 7 7 6 7 6 7 7 7 6 4 4 6 7 9 8 7 9 8 11 10 9 9 10 10 7 8 9 8 8 7 9 nan
nan 11 8 5 8 8 11 14 16 14 10 9 7 9 10 8 7 6 7 6 6 7 7 7 8 7 7 5 6 5 5 7 9 7 5 8 10 10 11 11 10 9 9 12 9 13 9 7 nan
nan 12 10 15 4 6 12 16 19 14 15 9 8 7 8 9 7 8 8 8 7 7 8 9 7 6 8 8 4 5 6 7 7 6 9 7 9 12 11 10 12 12 11 12 13 11 11 14 nan
nan 12 14 12 7 11 14 3 15 15 15 19 16 9 7 8 9 8 8 7 8 9 9 10 10 7 6 6 6 7 5 7 9 9 8 8 9 8 8 9 11 11 12 10 11 10 13 12 nan
nan 8 4 4 9 10 8 12 3 6 12 16 16 13 11 8 8 9 9 8 9 10 9 11 12 10 10 11 11 5 5 8 9 10 9 8 7 6 6 8 8 9 9 8 9 10 9 10 nan
nan -0 4 8 3 7 8 6 4 13 12 7 10 15 19 16 10 8 9 11 10 10 11 13 19 16 12 13 17 19 20 16 11 12 12 9 6 6 6 7 7 9 8 9 9 9 8 9 nan
nan 3 5 3 4 13 4 5 6 8 10 9 8 10 22 28 19 14 10 10 11 13 17 14 15 17 17 14 12 11 14 24 26 16 11 8 9 8 6 7 8 8 9 10 11 11 8 8 nan
nan 10 6 13 9 -3 4 11 8 5 3 4 6 10 12 12 24 23 20 22 15 16 15 13 6 5 5 10 8 9 8 6 11 17 16 11 10 10 7 8 7 7 10 10 11 11 10 9 nan
nan 11 21 10 6 8 11 9 16 16 12 5 7 8 9 10 12 12 16 14 17 17 6 8 5 8 3 1 5 8 9 10 11 9 8 10 8 9 9 6 5 5 8 11 11 7 7 8 nan
nan 1 -2 0 10 14 12 6 15 19 16 11 11 11 10 10 11 10 10 10 10 7 5 7 5 3 5 6 9 7 4 7 10 9 10 8 9 7 5 4 5 8 9 7 8 6 7 5 nan
nan nan nan nan nan nan nan nan nan nan nan nan nan nan nan nan nan nan nan nan nan nan nan nan nan nan nan nan nan nan nan nan nan nan nan nan nan nan nan nan nan nan nan nan nan nan nan nan nan
CAPE
416 778 943 2257 1154 308 327 165 123 51 54 11 50 503 449 219 0 0 0 13 405 876 1318 1509 1629 1733 1758 1961 1998 2046 2157 2227 2155 2161 2233 1899 2077 2110 2124 1954 2022 1995 1854 1920 1719 1651 1636 1729 1716
500 1431 1954 1325 557 358 241 129 178 372 116 187 525 269 563 340 0 0 116 545 981 1090 1281 1344 1670 1967 1969 2005 2008 2106 2163 2183 2201 2047 2128 2258 2070 1979 1938 1885 1776 1876 1797 1603 1625 1635 1726 1920 1903
1729 1734 1840 443 211 334 381 244 592 332 202 536 485 671 765 1 0 114 494 893 1086 1049 1184 1587 1808 1790 1674 1878 1958 1992 2151 2155 1977 2100 2051 2091 2014 2015 1960 1792 1712 1727 1590 1507 1477 1433 1460 1467 1328
956 1066 1251 560 292 318 118 408 390 388 418 519 662 320 10 0 118 495 736 774 802 964 1392 1576 1735 1712 1774 1916 2003 1895 1859 2006 1919 2044 2119 1995 1935 1483 1334 1182 1108 1088 1259 1443 1447 1432 1203 1162 1493
1507 1250 395 338 270 387 541 524 472 510 465 581 656 113 15 376 486 574 531 542 753 995 1436 1632 1770 1539 1386 1245 963 1851 2051 1875 1972 2063 2248 1919 1528 1358 1124 978 1039 1180 1157 1021 1011 1128 1426 1524 1455
813 845 390 411 335 386 428 282 257 350 411 466 366 1 396 432 475 362 359 539 586 854 975 1533 1417 1058 1611 1908 1011 1472 1784 1716 2080 2191 1842 1640 1431 1194 969 814 842 1052 1249 1238 1113 1270 1343 1353 1371
703 527 367 228 315 324 235 200 273 304 333 282 47 113 456 390 335 279 440 554 623 786 886 1163 165 1054 1718 2179 1263 1104 1475 1584 1687 1723 1616 1468 1273 1065 940 802 750 754 944 1157 1144 1212 1262 1075 969
846 704 316 244 353 316 208 214 149 180 219 99 49 248 320 309 310 342 439 591 725 505 299 173 595 1632 1512 1682 1672 1563 1245 1425 1480 1437 1361 1236 1093 1006 847 925 967 760 690 735 759 760 879 1391 1314
600 377 366 330 325 323 183 242 179 132 142 97 127 122 126 233 275 317 448 536 457 199 154 123 894 1214 984 718 1091 1193 1179 1244 1246 1284 1278 1277 976 1214 1112 637 1030 1159 942 799 851 991 1681 1672 1281
1155 188 250 275 327 380 244 276 153 132 161 130 149 83 97 213 258 243 258 258 39 63 91 211 169 161 283 261 693 588 485 563 893 1437 1901 1823 1799 1831 1573 1166 1283 1576 1502 1070 1499 1832 2398 2266 1012
782 381 488 208 261 289 224 219 131 117 150 185 169 139 144 202 202 90 66 9 1 21 1 15 31 169 236 449 744 908 1088 1336 2050 2766 2925 2703 2622 2626 2375 2496 2451 2677 2478 2368 2116 2258 2106 1434 1146
437 375 385 272 243 243 204 170 74 71 123 199 216 159 156 163 86 11 14 0 0 0 0 0 107 613 657 997 959 1072 1213 1749 1671 2388 2728 2455 2368 2659 2497 1874 2153 2599 2158 2645 2085 1887 2605 1942 996
533 393 343 260 210 236 165 83 85 274 109 75 105 184 151 95 26 0 4 0 0 0 0 5 475 1155 1396 1656 1463 1506 1425 1727 1632 1686 1991 1822 2084 2418 1971 1859 1866 2018 1706 1626 1842 1976 1619 1011 637
493 336 292 248 251 208 210 146 307 305 148 102 209 229 162 64 5 0 0 0 0 0 0 146 641 1437 1387 1458 1691 1504 1559 1781 1363 1021 976 1146 1885 2629 2166 2139 1869 1789 1979 2028 1896 1718 996 1072 1288
352 352 407 393 353 253 190 202 337 418 335 357 328 335 214 20 0 0 0 0 0 0 0 382 627 689 1101 1547 1626 1230 1216 1097 1165 888 1358 847 1778 2457 3107 1636 1522 1441 1924 2487 1999 1849 1651 1397 1235
393 294 249 417 349 219 199 380 418 504 399 393 311 317 375 168 73 12 0 4 0 0 0 202 8 206 687 1016 1328 994 1001 1146 878 662 804 1594 1514 1981 2270 1481 1427 1708 1568 1419 1308 1177 803 662 389
335 224 204 330 331 331 290 456 431 625 467 419 418 398 435 438 409 211 133 80 7 2 11 286 309 319 458 1010 1409 1435 1215 1330 806 933 804 1395 1026 1265 2129 1207 1157 2291 1527 1397 1296 949 1396 786 465
316 284 248 291 355 304 357 348 311 625 568 572 338 272 364 420 460 557 539 440 245 91 41 245 547 766 701 1133 1831 1319 942 737 785 1044 918 1302 1399 1679 2258 1011 1615 2043 1153 1209 1511 2293 1459 1407 1027
168 275 279 286 501 283 332 349 378 516 658 572 373 313 283 336 460 554 667 641 631 574 599 226 504 754 940 1370 1286 921 676 465 545 1210 1796 1922 2115 2096 2198 1532 1431 2121 1898 1900 2452 2112 1648 1345 1285
240 342 345 485 613 483 449 504 416 368 602 480 428 255 305 280 416 585 770 821 826 892 993 1049 949 854 1350 1286 1409 1063 970 815 853 1452 2279 2222 2225 2435 2423 2600 1893 2181 2758 1722 2063 1802 1591 1137 1309
305 301 273 356 770 749 631 612 519 507 429 451 370 336 218 182 392 593 726 888 863 1015 1197 1341 1893 1808 1651 1644 1585 1888 2008 1931 1614 1846 1965 2136 2135 2027 1903 1684 1528 2043 2047 2132 2283 2216 1880 971 1409
340 232 253 291 593 606 529 537 868 650 650 558 477 408 294 170 257 452 602 654 899 941 1056 1428 1858 2064 2057 2071 2171 2676 1494 1397 777 1374 1059 2170 1997 1595 1404 1534 1814 1896 1581 1801 2140 1388 2283 2099 1723
456 452 619 641 598 544 758 533 687 700 638 671 597 582 394 306 190 230 361 550 748 730 856 1176 1722 2174 1909 1822 2083 2048 3037 1614 1310 1390 1863 1860 1111 882 476 606 769 872 827 853 801 666 815 559 682
446 626 692 754 541 522 478 387 280 347 584 582 691 558 593 510 396 328 289 439 669 850 863 1040 1665 2402 2428 2107 2150 2942 2926 2315 1559 1871 2027 815 177 44 42 4 27 61 17 36 5 0 0 0 0
580 535 511 520 673 427 716 354 378 218 491 987 1124 1074 921 752 778 721 711 729 910 1080 1183 1236 1702 2228 2164 1801 1411 1451 1805 1739 2034 2296 1257 255 16 2 3 1 0 0 0 0 0 0 0 0 0
671 458 272 308 416 345 610 167 277 753 1135 1165 888 727 1093 1005 926 865 936 1092 1227 1224 1305 1783 91 6 1 1 3 2 3 186 2377 1246 319 55 20 13 7 3 0 0 0 0 0 0 0 0 0
53 543 346 206 372 192 103 47 97 271 802 1071 943 652 717 775 1346 1079 1073 1106 1394 1538 508 7 10 3 0 1 1 0 2 1 4 10 7 5 10 12 12 14 8 0 0 0 0 0 0 0 0
0 49 118 146 187 223 194 51 36 182 760 1324 1026 577 417 454 595 751 965 808 517 160 4 6 9 2 1 1 1 1 1 0 0 1 2 4 9 8 5 5 0 0 0 0 0 0 0 0 0
0 0 0 0 0 4 4 11 578 722 1552 1537 1164 532 440 507 264 287 237 187 88 19 5 9 5 7 3 0 1 2 3 4 5 7 11 13 13 18 6 0 0 0 0 0 0 0 0 0 0
0 0 0 0 0 0 0 0 1357 1682 1690 1413 989 512 45 168 335 340 409 280 162 75 65 22 12 7 3 3 5 15 10 5 6 8 4 5 10 23 25 3 2 0 0 0 0 0 0 0 0